| time (UTC) | temp C | wind direction | speed KPH | gust KPH | rain 1hr cm | rain 24hr cm | rain mn cm | humidity % | barometer mb |
| 20260508093008 | 7 | 148 | 3.2 | 6.4 | 0.00 | 0.00 | 0.00 | 48 | 1013.7 |
| 20260508091504 | 8 | 242 | 4.8 | 6.4 | 0.00 | 0.00 | 0.00 | 45 | 1013.6 |
| 20260508090004 | 10 | 105 | 1.6 | 8.0 | 0.00 | 0.00 | 0.00 | 36 | 1013.4 |
| 20260508084501 | 8 | 115 | 4.8 | 6.4 | 0.00 | 0.00 | 0.00 | 40 | 1013.5 |
| 20260508083057 | 10 | 136 | 3.2 | 8.0 | 0.00 | 0.00 | 0.00 | 39 | 1013.5 |
| 20260508081602 | 10 | 120 | 3.2 | 8.0 | 0.00 | 0.00 | 0.00 | 34 | 1013.6 |
| 20260508080052 | 12 | 179 | 3.2 | 12.9 | 0.00 | 0.00 | 0.00 | 30 | 1013.7 |
| 20260508074550 | 12 | 139 | 4.8 | 11.3 | 0.00 | 0.00 | 0.00 | 29 | 1013.7 |
| 20260508073053 | 11 | 135 | 4.8 | 11.3 | 0.00 | 0.00 | 0.00 | 35 | 1013.7 |
| 20260508071553 | 13 | 144 | 11.3 | 16.1 | 0.00 | 0.00 | 0.00 | 31 | 1013.6 |
| 20260508070040 | 13 | 139 | 11.3 | 14.5 | 0.00 | 0.00 | 0.00 | 33 | 1013.5 |
| 20260508064540 | 13 | 135 | 6.4 | 11.3 | 0.00 | 0.00 | 0.00 | 34 | 1013.3 |
| 20260508063038 | 12 | 160 | 9.7 | 11.3 | 0.00 | 0.00 | 0.00 | 40 | 1013.3 |
| 20260508061539 | 11 | 181 | 3.2 | 11.3 | 0.00 | 0.00 | 0.00 | 46 | 1013.2 |
| 20260508060037 | 11 | 142 | 8.0 | 11.3 | 0.00 | 0.00 | 0.00 | 46 | 1013.1 |
| 20260508054536 | 11 | 134 | 8.0 | 12.9 | 0.00 | 0.00 | 0.00 | 46 | 1013.0 |
| 20260508053058 | 11 | 143 | 8.0 | 9.7 | 0.00 | 0.00 | 0.00 | 50 | 1012.9 |
| 20260508051535 | 12 | 155 | 8.0 | 9.7 | 0.00 | 0.00 | 0.00 | 47 | 1012.7 |
| 20260508050035 | 11 | 219 | 6.4 | 11.3 | 0.00 | 0.00 | 0.00 | 56 | 1012.6 |
| 20260508044534 | 12 | 129 | 9.7 | 12.9 | 0.00 | 0.00 | 0.00 | 43 | 1012.4 |
| 20260508043033 | 13 | 147 | 8.0 | 12.9 | 0.00 | 0.00 | 0.00 | 44 | 1012.3 |
| 20260508041554 | 13 | 133 | 4.8 | 12.9 | 0.00 | 0.00 | 0.00 | 44 | 1012.3 |
| 20260508040037 | 12 | 137 | 6.4 | 12.9 | 0.00 | 0.00 | 0.00 | 46 | 1012.3 |
| 20260508034534 | 12 | 131 | 4.8 | 9.7 | 0.00 | 0.00 | 0.00 | 51 | 1012.1 |
| 20260508033031 | 13 | 139 | 1.6 | 9.7 | 0.00 | 0.00 | 0.00 | 51 | 1011.9 |
| 20260508031535 | 14 | 119 | 1.6 | 9.7 | 0.00 | 0.00 | 0.00 | 51 | 1011.9 |
| 20260508030034 | 16 | 129 | 1.6 | 3.2 | 0.00 | 0.00 | 0.00 | 44 | 1011.8 |
| 20260508024531 | 19 | 139 | 1.6 | 3.2 | 0.00 | 0.00 | 0.00 | 36 | 1011.7 |
| 20260508023030 | 20 | 139 | 1.6 | 4.8 | 0.00 | 0.00 | 0.00 | 33 | 1011.5 |
| 20260508021528 | 21 | 224 | 1.6 | 9.7 | 0.00 | 0.00 | 0.00 | 27 | 1011.5 |
| 20260508020036 | 22 | 242 | 3.2 | 8.0 | 0.00 | 0.00 | 0.00 | 23 | 1011.4 |
| 20260508014525 | 22 | 271 | 3.2 | 14.5 | 0.00 | 0.00 | 0.00 | 22 | 1011.5 |
| 20260508013024 | 23 | 233 | 8.0 | 19.3 | 0.00 | 0.00 | 0.00 | 20 | 1011.5 |
| 20260508011523 | 23 | 246 | 14.5 | 19.3 | 0.00 | 0.00 | 0.00 | 17 | 1011.6 |
| 20260508010022 | 23 | 250 | 17.7 | 25.7 | 0.00 | 0.00 | 0.00 | 16 | 1011.6 |
| 20260508004519 | 23 | 231 | 19.3 | 25.7 | 0.00 | 0.00 | 0.00 | 16 | 1011.6 |
| 20260508003019 | 23 | 243 | 14.5 | 29.0 | 0.00 | 0.00 | 0.00 | 20 | 1011.7 |
| 20260508001517 | 23 | 218 | 9.7 | 16.1 | 0.00 | 0.00 | 0.00 | 24 | 1011.8 |
| 20260508000017 | 23 | 252 | 14.5 | 27.4 | 0.00 | 0.00 | 0.00 | 21 | 1011.8 |
| 20260507234516 | 23 | 285 | 14.5 | 24.1 | 0.00 | 0.00 | 0.00 | 18 | 1011.8 |
| 20260507233028 | 23 | 234 | 8.0 | 24.1 | 0.00 | 0.00 | 0.00 | 19 | 1011.9 |
| 20260507231512 | 23 | 250 | 8.0 | 20.9 | 0.00 | 0.00 | 0.00 | 22 | 1012.0 |
| 20260507230011 | 23 | 214 | 4.8 | 20.9 | 0.00 | 0.00 | 0.00 | 25 | 1012.2 |
| 20260507224509 | 23 | 256 | 6.4 | 20.9 | 0.00 | 0.00 | 0.00 | 21 | 1012.4 |
| 20260507223007 | 23 | 268 | 14.5 | 22.5 | 0.00 | 0.00 | 0.00 | 22 | 1012.6 |
| 20260507221504 | 23 | 273 | 11.3 | 20.9 | 0.00 | 0.00 | 0.00 | 24 | 1012.7 |
| 20260507220001 | 22 | 267 | 6.4 | 19.3 | 0.00 | 0.00 | 0.00 | 24 | 1013.0 |
| 20260507214608 | 22 | 226 | 3.2 | 16.1 | 0.00 | 0.00 | 0.00 | 22 | 1013.1 |
| 20260507213105 | 22 | 259 | 6.4 | 17.7 | 0.00 | 0.00 | 0.00 | 27 | 1013.4 |
| 20260507211555 | 22 | 339 | 3.2 | 12.9 | 0.00 | 0.00 | 0.00 | 23 | 1013.5 |
| 20260507210056 | 22 | 240 | 12.9 | 19.3 | 0.00 | 0.00 | 0.00 | 29 | 1013.7 |
| 20260507204551 | 22 | 309 | 8.0 | 16.1 | 0.00 | 0.00 | 0.00 | 27 | 1014.0 |
| 20260507203048 | 21 | 243 | 8.0 | 17.7 | 0.00 | 0.00 | 0.00 | 30 | 1014.0 |
| 20260507201549 | 21 | 238 | 3.2 | 9.7 | 0.00 | 0.00 | 0.00 | 27 | 1014.2 |
| 20260507200047 | 21 | 234 | 12.9 | 19.3 | 0.00 | 0.00 | 0.00 | 29 | 1014.2 |
| 20260507194611 | 20 | 257 | 4.8 | 22.5 | 0.00 | 0.00 | 0.00 | 30 | 1014.5 |
| 20260507193043 | 20 | 281 | 11.3 | 22.5 | 0.00 | 0.00 | 0.00 | 33 | 1014.5 |
| 20260507191537 | 20 | 248 | 14.5 | 19.3 | 0.00 | 0.00 | 0.00 | 34 | 1014.5 |
| 20260507190036 | 19 | 258 | 14.5 | 24.1 | 0.00 | 0.00 | 0.00 | 36 | 1014.7 |
| 20260507184537 | 19 | 134 | 11.3 | 20.9 | 0.00 | 0.00 | 0.00 | 38 | 1014.8 |
| 20260507183042 | 19 | 263 | 14.5 | 24.1 | 0.00 | 0.00 | 0.00 | 39 | 1015.0 |
| 20260507181531 | 18 | 281 | 4.8 | 19.3 | 0.00 | 0.00 | 0.00 | 39 | 1015.0 |
| 20260507180034 | 18 | 259 | 12.9 | 20.9 | 0.00 | 0.00 | 0.00 | 44 | 1015.0 |
| 20260507174530 | 18 | 228 | 12.9 | 20.9 | 0.00 | 0.00 | 0.00 | 41 | 1015.1 |
| 20260507173038 | 17 | 253 | 4.8 | 19.3 | 0.00 | 0.00 | 0.00 | 42 | 1015.1 |
| 20260507171539 | 18 | 91 | 3.2 | 8.0 | 0.00 | 0.00 | 0.00 | 55 | 1015.0 |
| 20260507170022 | 17 | 83 | 3.2 | 8.0 | 0.00 | 0.00 | 0.00 | 53 | 1015.1 |
| 20260507164522 | 16 | 116 | 3.2 | 9.7 | 0.00 | 0.00 | 0.00 | 57 | 1015.1 |
| 20260507163019 | 16 | 68 | 1.6 | 11.3 | 0.00 | 0.00 | 0.00 | 57 | 1015.3 |
| 20260507161519 | 15 | 9 | 4.8 | 14.5 | 0.00 | 0.00 | 0.00 | 56 | 1015.4 |
| 20260507160016 | 16 | 131 | 0.0 | 3.2 | 0.00 | 0.00 | 0.00 | 55 | 1015.3 |
| 20260507154512 | 16 | 138 | 0.0 | 4.8 | 0.00 | 0.00 | 0.00 | 56 | 1015.2 |
| 20260507153009 | 15 | 154 | 0.0 | 3.2 | 0.00 | 0.00 | 0.00 | 57 | 1015.3 |
| 20260507151508 | 13 | 154 | 1.6 | 6.4 | 0.00 | 0.00 | 0.00 | 62 | 1015.4 |
| 20260507150007 | 12 | 135 | 1.6 | 4.8 | 0.00 | 0.00 | 0.00 | 71 | 1015.6 |
| 20260507144505 | 11 | 109 | 1.6 | 4.8 | 0.00 | 0.00 | 0.00 | 73 | 1015.5 |
| 20260507143010 | 10 | 238 | 1.6 | 3.2 | 0.00 | 0.00 | 0.00 | 74 | 1015.4 |
| 20260507141503 | 8 | 238 | 0.0 | 4.8 | 0.00 | 0.00 | 0.00 | 79 | 1015.5 |
| 20260507140001 | 7 | 289 | 3.2 | 9.7 | 0.00 | 0.00 | 0.00 | 79 | 1015.3 |
| 20260507134603 | 7 | 143 | 0.0 | 3.2 | 0.00 | 0.00 | 0.00 | 79 | 1015.0 |
| 20260507133101 | 8 | 143 | 1.6 | 6.4 | 0.00 | 0.00 | 0.00 | 76 | 1014.7 |
| 20260507131553 | 8 | 154 | 1.6 | 9.7 | 0.00 | 0.00 | 0.00 | 75 | 1014.7 |
| 20260507130052 | 8 | 112 | 3.2 | 9.7 | 0.00 | 0.00 | 0.00 | 75 | 1014.6 |
| 20260507124549 | 8 | 64 | 1.6 | 6.4 | 0.00 | 0.00 | 0.00 | 74 | 1014.7 |
| 20260507123048 | 10 | 76 | 0.0 | 8.0 | 0.00 | 0.00 | 0.00 | 68 | 1014.6 |
| 20260507121545 | 11 | 31 | 6.4 | 11.3 | 0.00 | 0.00 | 0.00 | 66 | 1014.5 |
| 20260507120050 | 11 | 75 | 6.4 | 14.5 | 0.00 | 0.00 | 0.00 | 66 | 1014.5 |
| 20260507114542 | 11 | 65 | 6.4 | 12.9 | 0.00 | 0.00 | 0.00 | 63 | 1014.5 |
| 20260507113045 | 11 | 58 | 6.4 | 11.3 | 0.00 | 0.00 | 0.00 | 63 | 1014.5 |
| 20260507111537 | 11 | 29 | 3.2 | 14.5 | 0.00 | 0.00 | 0.00 | 61 | 1014.5 |
| 20260507110037 | 12 | 48 | 9.7 | 14.5 | 0.00 | 0.00 | 0.00 | 58 | 1014.4 |
| 20260507104534 | 12 | 91 | 6.4 | 12.9 | 0.00 | 0.00 | 0.00 | 57 | 1014.4 |
| 20260507103033 | 12 | 53 | 4.8 | 11.3 | 0.00 | 0.00 | 0.00 | 58 | 1014.5 |
| 20260507101532 | 11 | 96 | 3.2 | 4.8 | 0.00 | 0.00 | 0.00 | 61 | 1014.6 |
| 20260507100036 | 12 | 103 | 0.0 | 4.8 | 0.00 | 0.00 | 0.00 | 57 | 1014.5 |
| 20260507094528 | 11 | 105 | 8.0 | 9.7 | 0.00 | 0.00 | 0.00 | 64 | 1014.5 |